Regional Weather Roundup
Issued by NWS

Home | Current Version | Previous Version | Text Only | Print | Product List | Glossary Off
Versions: 1 2 3 4 5 6 7 8 9 10 11 12 13 14 15 16 17 18 19 20 21 22 23 24 25 26 27 28 29 30 31 32 33 34 35 36 37 38 39 40 41 42 43 44 45 46 47 48 49 50

000
ASUS43 KLOT 230312
RWRIL

ILLINOIS REGIONAL WEATHER ROUNDUP
NATIONAL WEATHER SERVICE CHICAGO/ROMEOVILLE IL
900 PM CST WED FEB 22 2017

NOTE: "FAIR" INDICATES FEW OR NO CLOUDS BELOW 12,000 FEET WITH NO
SIGNIFICANT WEATHER AND/OR OBSTRUCTIONS TO VISIBILITY.

* THESE STATIONS ARE NOT UNDER NWS QUALITY CONTROL. THEY ALSO MAY NOT
  REPORT WEATHER SUCH AS PRECIPITATION OR FOG.

ILZ001-002-007-009-015-016-024-230400-
NORTHWEST ILLINOIS

CITY           SKY/WX    TMP DP  RH WIND       PRES   REMARKS
MOLINE         CLEAR     57  50  77 SW8       29.64R
STERLING*      CLEAR     56  54  93 SW7       29.63R
SAVANNA*       CLEAR     58  48  70 CALM      29.62R
$$

ILZ003-004-008-010-011-017-018-230400-
NORTH CENTRAL ILLINOIS

CITY           SKY/WX    TMP DP  RH WIND       PRES   REMARKS
ROCKFORD       CLEAR     56  52  86 SW7       29.62S
FREEPORT*      CLEAR     54  50  88 SW13      29.62R
ROCHELLE*      CLEAR     55  53  94 SW13      29.63R
DE KALB*       CLEAR     55  53  94 S15       29.63R FOG
PERU*          CLEAR     57  52  82 SW15      29.65R
$$

ILZ005-006-012>014-019>023-230400-
NORTHEAST ILLINOIS

CITY           SKY/WX    TMP DP  RH WIND       PRES   REMARKS
CHICAGO-OHARE  CLEAR     62  53  72 SW17G26   29.61S
CHICAGO-MIDWAY CLEAR     62  53  72 SW17G23   29.63R
AURORA         CLEAR     58  53  84 S14       29.63R
LANSING*       CLEAR     56  55  95 S8        29.66R
JOLIET*        CLEAR     60  55  84 SW7       29.65R
WAUKEGAN       PTCLDY    60  54  80 SW16G28   29.59S
DUPAGE AIRPORT CLEAR     58  52  80 SW14G24   29.62S
KANKAKEE*      CLEAR     56  54  91 S10       29.68R
WHEELING       CLEAR     61  53  75 SW16G23   29.62R
MORRIS*        CLEAR     57  54  87 SW12      29.64S
ROMEOVILLE*    CLEAR     58  56  92 SW15      29.64S
NORTHERLY ISL    N/A     63  53  70 S10         N/A
$$

LMZ740>746-230400-
SOUTHERN LAKE MICHIGAN

STATION/POSITION SKY/WX   TEMP    WIND        PRES    VSBY  WAVE
                          AIR SEA DIR/SP/G                  HT/PER
                          (F)     (DEG/KT/KT) (MB)    (MI)  (FT/S)
HARRISON CRIB              63     210/ 23/ 25   N/A
BURNHAM HARBOR             62     200/ 10/ 19   N/A
CALUMET HARBOR             61     190/ 11/ 15 1003.1F
BURNS HARBOR               59     180/ 12/ 17 1004.4R
MICHIGAN CITY              59     160/ 14/ 17   N/A
$$

ILZ025>027-034>036-040-047-049-050-058-095>099-230400-
WEST-CENTRAL ILLINOIS

CITY           SKY/WX    TMP DP  RH WIND       PRES   REMARKS
QUINCY         CLEAR     56  53  90 S7        29.68R
GALESBURG*     CLEAR     54  50  88 SW5       29.68R
MACOMB*        CLEAR     57  53  88 SW9       29.70R
JACKSONVILLE*  CLEAR     53  52  96 SW3       29.70R FOG
PITTSFIELD*    CLEAR     58  55  92 SW5       29.70S
$$

ILZ028>032-037-038-041>044-048-051>054-059>061-230400-
CENTRAL ILLINOIS

CITY           SKY/WX    TMP DP  RH WIND       PRES   REMARKS
PONTIAC        CLEAR     57  56  96 SW6       29.69R
BLOOMINGTON    CLEAR     57  54  89 SW13      29.70R
DECATUR        CLEAR     62  52  69 S14       29.70R
PEORIA         CLEAR     55  53  93 SW9       29.68S
LACON*         PTCLDY    58  54  87 SW10G17   29.66R
LINCOLN*       CLEAR     56  56  98 CALM      29.70R FOG
SPRINGFIELD    CLEAR     55  53  93 SW3       29.70R
TAYLORVILLE    CLEAR     59  54  82 S13       29.70S
$$

ILZ033-039-045-046-055>057-062-063-230400-
EAST-CENTRAL ILLINOIS

CITY           SKY/WX    TMP DP  RH WIND       PRES   REMARKS
CHAMPAIGN      CLEAR     59  53  80 S13       29.70R
RANTOUL*       CLEAR     62  56  82 S10       29.70R
MATTOON        CLEAR     60  55  83 S9        29.71S
PARIS*         PTCLDY    59  55  87 S13       29.73S
$$

ILZ079-100>102-230400-
SOUTHWEST ILLINOIS

CITY           SKY/WX    TMP DP  RH WIND       PRES   REMARKS
ALTON          CLEAR     61  52  72 S14       29.71R
BELLEVILLE     PTCLDY    62  58  88 VRB3      29.71S
CAHOKIA*       CLEAR     64  52  64 S7        29.72R
SPARTA*        CLOUDY    63  56  77 S9        29.76R
$$

ILZ064>066-069>071-074>076-080>082-084>086-088>090-092>094-230400-
SOUTH-CENTRAL ILLINOIS

CITY           SKY/WX    TMP DP  RH WIND       PRES   REMARKS
CARBONDALE     CLOUDY    62  58  86 S10       29.77R
CAIRO*         CLEAR     56  55  97 S3        29.79S
EFFINGHAM*     CLEAR     63  55  76 SE8       29.75R
MARION         CLOUDY    59  57  94 S6        29.77F
MT. VERNON     CLOUDY    58  53  84 S6        29.76R
CENTRALIA*     MOCLDY    63  56  80 S12       29.74S
SALEM*         PTCLDY    64  55  70 S13       29.75R
METROPOLIS*    CLEAR     62  55  80 CALM      29.80F
$$

ILZ067-068-072-073-078-083-087-091-230400-
SOUTHEAST ILLINOIS

CITY           SKY/WX    TMP DP  RH WIND       PRES   REMARKS
LAWRENCEVILLE  PTCLDY    57  54  89 S10       29.76F
FLORA*         MOCLDY    60  55  81 S9        29.75S
FAIRFIELD*     MOCLDY    60  54  82 S5        29.75S
HARRISBURG*    PTCLDY    59  56  88 S5        29.78S
ROBINSON*      PTCLDY    58  54  85 S10       29.75F
CARMI*         PTCLDY    56  54  92 S8        29.77S
$$

ABBREVIATIONS USED IN REMARKS
   TC - TEMPERATURE IN CELSIUS
  WCI - WIND CHILL INDEX
   HX - HEAT INDEX
  VSB - VISIBILITY
$$





USA.gov is the U.S. government's official web portal to all federal, state and local government web resources and services.